Regional Weather Roundup
Issued by NWS

Home | Current Version | Previous Version | Graphics & Text | Print | Product List | Glossary Off
Versions: 1 2 3 4 5 6 7 8 9 10 11 12 13 14 15 16 17 18 19 20 21 22 23 24 25 26 27 28 29 30 31 32 33 34 35 36 37 38 39 40 41 42 43 44 45 46 47 48 49 50

000
ASUS43 KMPX 040501
RWRMN
WEATHER ROUNDUP FOR MINNESOTA
NATIONAL WEATHER SERVICE TWIN CITIES/CHANHASSEN MN
1200 AM CDT MON MAY 04 2015


NOTE: "FAIR" INDICATES FEW OR NO CLOUDS BELOW 12,000 FEET WITH NO
SIGNIFICANT WEATHER AND/OR OBSTRUCTIONS TO VISIBILITY. N/A MEANS
CURRENT SKY AND/OR WEATHER CONDITIONS ARE NOT AVAILABLE.

MNZ060>063-068>070-040600-
   Twin Cities Metro

CITY           SKY/WX    TMP DP  RH WIND       PRES   REMARKS
TWIN CITIES    CLOUDY    59  45  59 N6        29.93R
ST PAUL        CLOUDY    58  46  64 CALM      29.94R
CRYSTAL        MOCLDY    55  46  71 NW3       29.93R
BLAINE         MOCLDY    57  46  67 NW3       29.94R
LAKEVILLE      CLOUDY    54  48  82 NW5       29.94R
EDEN PRAIRIE   PTCLDY    58  44  60 NW6       29.93R
SOUTH ST PAUL  CLOUDY    59  45  59 N3        29.93R
LAKE ELMO      FAIR      54  46  76 N3        29.95R
$$
MNZ001>005-007-008-013>017-022>024-027-028-040600-
   Northwest Minnesota

CITY           SKY/WX    TMP DP  RH WIND       PRES   REMARKS
BEMIDJI        CLEAR     49  33  52 N3        30.00R
HALLOCK        CLEAR     46  30  53 N7        30.03R
ROSEAU         CLEAR     43  34  70 CALM      30.02R
WARROAD        CLEAR     45  37  76 NW3       30.02R
THIEF RVR FALL CLEAR     48  34  57 CALM      30.02R
CROOKSTON      CLEAR     48  30  49 NE3       30.02R
MOORHEAD       CLEAR     48  25  40 NW8       30.02R
PARK RAPIDS    CLEAR     53  26  35 N5        30.01R
MAHNOMEN       FAIR      46  26  45 N8        30.00R
$$
MNZ006-009>011-018-025>026-040600-
   North Central Minnesota

CITY           SKY/WX    TMP DP  RH WIND       PRES   REMARKS
BAUDETTE       CLEAR     44  37  76 N5        30.00R
FLAG ISLAND    CLEAR     48  39  71 NW15      30.00R
INTL FALLS     CLEAR     44  34  67 NW6       29.98R
WASKISH        CLEAR     46  36  66 CALM      30.01R
BIG FORK       CLEAR     46  34  61 CALM      30.01R
LONGVILLE      CLEAR     48  30  49 N3        30.01R
GRAND RAPIDS   CLEAR     52  30  43 N6        30.00R
CRANE LAKE     CLEAR     48  36  61 CALM      29.99R
COOK           CLEAR     50  34  53 CALM      29.99R
WALKER         FAIR      53  31  44 N6        30.00R
$$
MNZ012-019>021-037-040600-
   Northeast Minnesota

CITY           SKY/WX    TMP DP  RH WIND       PRES   REMARKS
DULUTH         PTCLDY    54  29  38 NW10      29.94R
ELY            CLEAR     48  30  49 NW3       29.97R
HIBBING        CLEAR     44  29  55 N7        29.99R
EVELETH        CLEAR     52  30  43 NW7       29.99R
DULUTH HARBOR  MOCLDY    57  41  54 NW10      29.93R
TWO HARBORS    MOCLDY    54  34  47 NW5       29.92R
SILVER BAY     MOCLDY    52  30  43 NW6       29.91S
GRAND MARAIS     N/A     50  32  50 N6        29.89R
G MARAIS ARPRT PTCLDY    48  25  40 W8        29.92R
$$
MNZ029>031-032-039>041-046>048-054>057-064-040600-
   West Central Minnesota

CITY           SKY/WX    TMP DP  RH WIND       PRES   REMARKS
FERGUS FALLS   CLEAR     48  27  43 N7        30.03R
WHEATON        CLEAR     48  25  40 NW6       30.05R
MORRIS         CLEAR     52  27  37 N8        30.02R
ALEXANDRIA     CLEAR     50  32  50 W3        30.02R
ELBOW LAKE     FAIR      51  30  44 N7        30.02R
WADENA         CLEAR     46  28  49 NW6       30.00R
GLENWOOD       CLEAR     52  32  46 NW3       30.02R
APPLETON       CLEAR     46  30  53 NW3       30.02R
BENSON         CLEAR     45  30  57 CALM      30.02R
ORTONVILLE     CLEAR     54  30  40 NW5       30.03R
MADISON        FAIR      48  28  46 W3        30.03R
WILLMAR        FAIR      48  36  61 NW6       30.01S
$$
MNZ033>034-036-042>043-049>051-058-059-040600-
   Central Minnesota

CITY           SKY/WX    TMP DP  RH WIND       PRES   REMARKS
ST CLOUD       CLEAR     47  37  68 NW5       29.97R
SAUK CENTRE    FAIR      46  33  61 W5        30.00R
PAYNESVILLE    CLEAR     42  33  69 SW7       30.00R
AITKIN         CLEAR     39  30  70 CALM      29.97R
PINE RIVER     CLEAR     43  32  65 CALM      30.04R
BRAINERD       CLEAR     43  35  73 N5        30.00R
STAPLES        CLEAR     45  30  57 CALM      30.01R
LONG PRAIRIE   FAIR      45  36  70 CALM      30.01R
LITTLE FALLS   CLEAR     45  30  57 CALM      29.99R
LITCHFIELD     PTCLDY    55  34  44 NW6       29.98R
BUFFALO        FAIR      56  44  64 NW5       29.97R
MAPLE LAKE     FAIR      54  43  67 NW3       29.98R
$$
MNZ037-044-045-052-053-040600-
   East Central Minnesota

CITY           SKY/WX    TMP DP  RH WIND       PRES   REMARKS
PRINCETON      CLEAR     50  37  62 CALM      29.97R
MORA           CLEAR     45  36  70 CALM      29.98R
CAMBRIDGE      PTCLDY    50  39  66 CALM      29.94R
RUSH CITY      MOCLDY    48  42  79 CALM      29.95R
MOOSE LAKE     PTCLDY    48  32  53 NW5       29.93R
HINCKLEY       FAIR      45  41  87 N3        29.95R
CLOQUET        PTCLDY    50  27  40 NW7       29.96R
MCGREGOR       CLEAR     41  32  70 NW6       29.98R
$$
MNZ071>073-080-081-089-090-097-098-040600-
   Southwest Minnesota

CITY           SKY/WX    TMP DP  RH WIND       PRES   REMARKS
MONTEVIDEO     CLEAR     52  28  40 N5        30.02R
GRANITE FALLS  PTCLDY    51  28  42 NW5       30.01S
CANBY          CLEAR     46  32  58 W5        30.04R
MARSHALL       PTCLDY    48  25  40 NW10      30.01R
REDWOOD FALLS  PTCLDY    58  33  39 CALM      29.98R
OLIVIA         PTCLDY    52  30  43 N7        29.98R
WORTHINGTON    PTCLDY    57  28  33 N14       29.99R
JACKSON        PTCLDY    59  37  44 VRB5      29.97R
TRACY          PTCLDY    54  28  36 NW6       30.01R
SLAYTON        PTCLDY    54  28  36 N7        30.01R
$$
MNZ065>067-074>077-082>085-091>093-040600-
   South Central Minnesota

CITY           SKY/WX    TMP DP  RH WIND       PRES   REMARKS
MANKATO          N/A    N/A N/A N/A MISG        N/A
NEW ULM        MOCLDY    57  39  51 N9        29.95R
ST JAMES       PTCLDY    61  41  48 NW9       29.96R
FAIRMONT       MOCLDY    59  39  47 N6        29.95R
GLENCOE        PTCLDY    58  46  63 NW6       29.95S
FARIBAULT      MOCLDY    55  50  82 NW3       29.94R
OWATONNA       MOCLDY    55  50  82 NW7       29.94R
WASECA         PTCLDY    55  50  82 N10       29.94R
ALBERT LEA     MOCLDY    57  54  88 N3        29.93R
$$
MNZ078>079-086>088-094>096-040600-
   Southeast Minnesota

CITY           SKY/WX    TMP DP  RH WIND       PRES   REMARKS
ROCHESTER      CLOUDY    58  56  93 NW8       29.91R
RED WING       CLOUDY    55  54  94 NW3       29.90R
STANTON        CLOUDY    55  51  86 NW6       29.92R
DODGE CENTER   CLOUDY    55  54  94 N5        29.92R
WINONA         CLOUDY    61  59  94 CALM      29.87R
AUSTIN         CLOUDY    57  55  94 NW8       29.91R
PRESTON        CLOUDY    57  56  94 SE5       29.89R
$$
ABBREVIATIONS USED IN REMARKS
   TC - TEMPERATURES IN CELSIUS
  WCI - WIND CHILL INDEX
   HX - HEAT INDEX
  VSB - VISIBILITY
$$



USA.gov is the U.S. government's official web portal to all federal, state and local government web resources and services.